Regional Weather Roundup
Issued by NWS

Home | Current Version | Previous Version | Text Only | Print | Product List | Glossary On
Versions: 1 2 3 4 5 6 7 8 9 10 11 12 13 14 15 16 17 18 19 20 21 22 23 24 25 26 27 28 29 30 31 32 33 34 35 36 37 38 39 40 41 42 43 44 45 46 47 48 49 50
000
ASHW40 PHFO 241510
RWRHI

WEATHER ROUNDUP FOR HAWAII
NATIONAL WEATHER SERVICE HONOLULU HI
500 AM HST THU APR 24 2014

THIS IS AN AUTOMATED REPORT THAT HAS NOT BEEN QUALITY CONTROLLED.

NOTE..."FAIR" INDICATES FEW OR NO CLOUDS BELOW 12,000 FEET WITH NO
SIGNIFICANT WEATHER AND/OR OBSTRUCTIONS TO VISIBILITY.

* - THESE SITES REPORT LIMITED FIELDS

HIZ001>004-241600-
KAUAI-NIIHAU-

CITY           SKY/WX    TMP DP  RH WIND       PRES   REMARKS
LIHUE APT      MOCLDY    73  69  88 NE16      30.11S
PORT ALLEN*      N/A     72 N/A N/A E14G21      N/A
POIPU*           N/A     73 N/A N/A NE10G20     N/A
PRINCEVILLE*   NOT AVBL
KOKOLE POINT*  NOT AVBL
MOLOAA DAIRY*  NOT AVBL
WAIMEA HTS*    NOT AVBL
PUU OPAE*      NOT AVBL
PUU LUA*       NOT AVBL
MAKAHA RIDGE*  NOT AVBL
$$

HIZ005>011-241600-
OAHU-

CITY           SKY/WX    TMP DP  RH WIND       PRES   REMARKS
HONOLULU       MOCLDY    74  64  71 E14       30.07R
KALAELOA       NOT AVBL
KANEOHE MCB    CLOUDY    72  64  77 NE9       30.09R
WHEELER FIELD  DRIZZLE   67  64  92 S2        30.09R
BELLOWS*       NOT AVBL
KAHUKU*        NOT AVBL
WHEELER*       NOT AVBL
WAIANAE HARBOR NOT AVBL
DILLINGHAM*      N/A     68  66  94 SE2         N/A
KAHUKU TRN*      N/A     68  66  94 E8G22       N/A
KAWAILOA*      NOT AVBL
KII*             N/A     72  66  83 E18G28      N/A
MAKUA RANGE*     N/A     70  66  88 E7G18       N/A
OAHU FOREST NW NOT AVBL
SCHOFIELD BRK*   N/A     66  63  88 MISG        N/A
SCHOFIELD S*     N/A     64 N/A N/A CALM        N/A
WAIANAE VLY*   NOT AVBL
KUAOKALA*      NOT AVBL
HONOULIUULI*   NOT AVBL
MOKUOLOE IS*     N/A    N/A N/A N/A MISG        N/A
PALEHUA*       NOT AVBL
WAIAWA PHB*    NOT AVBL
$$

HIZ012>013-241600-
MOLOKAI-

CITY           SKY/WX    TMP DP  RH WIND       PRES   REMARKS
MOLOKAI AIRPT  PTCLDY    72  68  87 NE13G21   30.08R
KALAUPAPA      NOT AVBL
MAKAPULAPAI*   NOT AVBL
MOLOKAI 1*     NOT AVBL
PUU ALII*      NOT AVBL
$$

HIZ016-241600-
KAHOOLAWE-

CITY           SKY/WX    TMP DP  RH WIND       PRES   REMARKS
KAHOOLAWE*     NOT AVBL
HAKIOAWA*      NOT AVBL
HONOKANAIA*      N/A     75  62  64 N9G20     30.05R
KANELOA*       NOT AVBL
KEALIALALO*    NOT AVBL
LUA MAKIKA*    NOT AVBL
$$

HIZ014>015-241600-
LANAI-

CITY           SKY/WX    TMP DP  RH WIND       PRES   REMARKS
LANAI CITY     FAIR      66  64  93 NE9       30.10S
LANAI 1*       NOT AVBL
$$

HIZ017>028-241600-
MAUI-

CITY           SKY/WX    TMP DP  RH WIND       PRES   REMARKS
KAHULUI        RAIN      72  67  84 NE15      30.06R
KAPALUA-W MAUI NOT AVBL
HANA AIRPORT   NOT AVBL
HANA*          NOT AVBL
HALEAKALA SUMM   N/A     43  18  36 NE23G36     N/A
MAALAEA BAY*   NOT AVBL
HALEAKALA*     NOT AVBL
KAUPO GAP*     NOT AVBL
KULA 1*          N/A    N/A N/A N/A CALM        N/A
$$

HIZ023>026-241600-
BIG ISLAND OF HAWAII COAST AND LOWER SLOPES-

CITY           SKY/WX    TMP DP  RH WIND       PRES   REMARKS
KAILUA KONA    CLEAR     74  68  81 E7        29.99R
HILO           MOCLDY    67  66  97 W7        30.07S
HONOKAA*       NOT AVBL
KAWAIHAE MWT*  NOT AVBL
KAWAIHAE*        N/A     75 N/A N/A E18G25      N/A
SOUTH POINT*   NOT AVBL
UPOLU AIRPORT* NOT AVBL
KAMUELA*       SUNNY     59  55  88 E14       30.11S
HAKALAU*         N/A     41  32  70 W5          N/A
KALOKO-HONOKO* NOT AVBL
PALI 2*          N/A     61  54  77 VRB18G30    N/A
KEALAKOMO*       N/A    N/A N/A N/A NE13G24     N/A
KAUPULEHU*     NOT AVBL
KAPAPALA*        N/A     61  51  70 N3G12       N/A
LOWER KAHUKU*  NOT AVBL
PUHE CS*       NOT AVBL
PUHO CS*       NOT AVBL
PTA KEAMUKU*     N/A     55  52  88 SE6         N/A
WAIKOLOA*      NOT AVBL
$$

HIZ027>028-241600-
BIG ISLAND OF HAWAII INTERIOR AND SUMMMITS-

CITY           SKY/WX    TMP DP  RH WIND       PRES   REMARKS
BRADSHAW FIELD PTCLDY    48  41  74 SE8G17    30.30F
MK VISITOR CEN NOT AVBL
MAUNA KEA*       N/A     32  -4  21 SE12        N/A  WCI  23
MAUNA LOA*     NOT AVBL
MAUNA LOA 1*   NOT AVBL
PTA KIPUKA*      N/A     52  46  82 S6G12       N/A
PTA RANGE 17*    N/A     52  43  71 E14G25      N/A
PTA WEST*        N/A     54  43  66 SE9G26      N/A
NENE CABIN*    NOT AVBL
AHUMOA*        NOT AVBL
PTA PORTABLE*  NOT AVBL
PUU MALI*      NOT AVBL
$$

HIC003-241600-
NORTHWEST ISLANDS-

CITY           SKY/WX    TMP DP  RH WIND       PRES   REMARKS
MIDWAY ISLAND  CLEAR     72  70  94 SE12      30.18R
MIDWAY NOS*    NOT AVBL
FRENCH FRIGATE NOT AVBL
$$

PHZ110>124-180-241600-
BUOY REPORTS

STATION/POSITION TIME  TEMP    WIND        PRES    WAVE   SWELL
                       AIR SEA DIR/SP/G            HT/PER HT/DIR
                 (UTC) (F)     (DEG/KT/KT) (MB)    (FT/S) (FT/D)
BUOY 51001       NOT AVBL
BUOY 51101       1500   72 73   60/ 17/ 21 1020.6S   9/14   7/340
BUOY 51100       1500   69      40/ 19     1019.8
BUOY 51003       1400   77 77   60/ 16/ 19 1016.2F   8/15   7
BUOY 51004       1500   77 79   70/ 19/ 21 1013.4R
BARBERS PT BUOY  NOT AVBL
WAIMEA BAY BUOY  1500      76                N/A     6/15   3/310
KAILUA BAY BUOY  1500      75                N/A     7/ 8   2/ 20
LANAI BUOY       1500      77                N/A     3/15   2/240
BARBERS PT 2     1500      76                N/A     5/15   3/310
PAUWELA MAUI     NOT AVBL
HILO             1500      77                N/A     9/ 9   3/340
KANEOHE BAY BUOY 1500      75                N/A     7/ 8   2/360
HANALEI KAUAI    1500      76                N/A     8/14   5/310
KAHULUI HARBOR   1500   74 76   40/ 15/ 20 1017.6S
HONOLULU HARBOR  1500   75      50/  4/  8 1018.0S
KILO NALU        NOT AVBL
HILO HARBOR      1500   70 77  230/  4/  5 1017.7S
MOKUOLOE         1500   73 76   60/ 11/ 14 1018.9R
NAWILIWILI       1500      76                N/A
WHOTS BUOY       NOT AVBL
BUOY 51028       NOT AVBL
$$

......................KEY........................................
  SKY/WX - SKY CONDITIONS/PRESENT WEATHER
  TMP    - TEMPERATURE IN FAHRENHEIT
  DWPT   - DEWPOINT IN FAHRENHEIT
  RH     - RELATIVE HUMIDITY IN PERCENT
  WIND   - DIRECTION AND SPEED /MPH FOR ISLANDS...KTS FOR BUOYS/
  PRES   - MEAN SEA LEVEL PRESSURE IN INCHES OF HG
  VSB    - VISIBILITY IN MILES
  HX     - HEAT INDEX
  WCI    - WIND CHILL INDEX
  VRB    - VARIABLE WIND DIRECTION
  N/A    - NOT AVAILABLE



USA.gov is the U.S. government's official web portal to all federal, state and local government web resources and services.